Location: Newark
(43.4306°N, 0.3089°E)
Time: 03:59:51
(UTC+00:00)

Transit 2A Rocket - Pass Details

Date: 26 August 2019
Orbit: 592 x 911 km, 66.7° (Epoch: 15 September)

Event Time Altitude Azimuth Distance (km) Brightness Sun altitude
Rises 20:12:31 0° 266° (W) 3,376 9.3 -15.4°
Reaches altitude 10° 20:16:15 10° 289° (WNW) 2,377 8.8 -16.0°
Maximum altitude 20:19:11 15° 322° (NW) 2,020 8.2 -16.5°
Drops below altitude 10° 20:22:01 10° 356° (N) 2,264 7.9 -16.9°
Sets 20:25:25 0° 21° (NNE) 3,114 8.3 -17.4°
